Hallock, MN

3:11 PM CDT on September 19, 2017 (GMT -0500)
Hallock Municipal

Weather History for KHCO - March, 2013

Change the Weather History Date:

Saturday, March 30, 2013

  Actual Average Record
Temperature  
Mean Temperature 28 °F -  
Max Temperature 35 °F 39 °F 67 °F (1986)
Min Temperature 21 °F 21 °F -22 °F (1975)
Degree Days  
Heating Degree Days 37    
Moisture  
Dew Point 28 °F    
Average Humidity 92    
Maximum Humidity 100    
Minimum Humidity 75    
Precipitation  
Precipitation 0.00 in - - ()
Sea Level Pressure  
Sea Level Pressure 29.92 in    
Wind  
Wind Speed 4 mph (WNW)    
Max Wind Speed 16 mph    
Max Gust Speed -    
Visibility 6 miles    
Events Fog    
Averages and records for this station are not official NWS values.
T = Trace of Precipitation, MM = Missing Value Source: NWS Daily Summary

Daily Weather History Graph

Daily Weather History Graph

Search for Another Location

Airport or City:

Trip Planner

Search our weather history database for the weather conditions in past years. The results will help you decide how hot, cold, wet, or windy it might be!

Date:

Astronomy

Mar. 30, 2013 Rise Set
Actual Time 7:09 AM CDT 7:56 PM CDT
Civil Twilight 6:37 AM CDT 8:27 PM CDT
Nautical Twilight 5:59 AM CDT 9:06 PM CDT
Astronomical Twilight 5:19 AM CDT 9:46 PM CDT
Moon No Moon Rise 8:46 AM CDT (3/30)
Length of Visible Light 13h 50m
Length of Day
12h 47m
Waning Gibbous, 86% of the Moon is Illuminated
Mar 30
Waning Gibbous
Apr 2
Last Quarter
Apr 10
New
Apr 18
First Quarter
Apr 25
Full

Hourly Weather History & Observations

Time (CDT) Temp. Windchill Dew Point Humidity Pressure Visibility Wind Dir Wind Speed Gust Speed Precip Events Conditions
12:14 AM 26.6 °F - 26.6 °F 100% 29.99 in 0.2 mi Calm Calm - N/A Fog Light Freezing Fog
12:34 AM 26.6 °F - 26.6 °F 100% 29.98 in 0.2 mi Calm Calm - N/A Fog Light Freezing Fog
12:53 AM 26.6 °F 22.6 °F 26.6 °F 100% 29.97 in 0.2 mi SE 3.5 mph - N/A Fog Light Freezing Fog
1:14 AM 26.6 °F 21.2 °F 26.6 °F 100% 29.96 in 0.2 mi SE 4.6 mph - N/A Fog Light Freezing Fog
1:33 AM 26.6 °F 19.1 °F 26.6 °F 100% 29.95 in 0.2 mi SE 6.9 mph - N/A Fog Light Freezing Fog
1:54 AM 26.6 °F 20.0 °F 26.6 °F 100% 29.95 in 0.2 mi SE 5.8 mph - N/A Fog Light Freezing Fog
2:14 AM 26.6 °F 21.2 °F 26.6 °F 100% 29.95 in 0.2 mi SSE 4.6 mph - N/A Fog Light Freezing Fog
2:33 AM 26.6 °F 21.2 °F 26.6 °F 100% 29.94 in 0.5 mi SE 4.6 mph - N/A Fog Light Freezing Fog
2:54 AM 28.4 °F 20.4 °F 26.6 °F 93% 29.92 in 1.0 mi South 8.1 mph - N/A   Overcast
3:14 AM 28.4 °F - 26.6 °F 93% 29.93 in 1.2 mi Calm Calm - N/A   Overcast
3:33 AM 28.4 °F - 26.6 °F 93% 29.94 in 1.2 mi Calm Calm - N/A   Overcast
3:54 AM 28.4 °F 24.6 °F 28.4 °F 100% 29.93 in 1.0 mi SSW 3.5 mph - N/A   Overcast
4:14 AM 28.4 °F 24.6 °F 26.6 °F 93% 29.92 in 0.8 mi SSW 3.5 mph - N/A   Overcast
4:33 AM 28.4 °F 23.3 °F 28.4 °F 100% 29.92 in 0.8 mi South 4.6 mph - N/A   Overcast
4:54 AM 28.4 °F - 28.4 °F 100% 29.92 in 0.5 mi Calm Calm - N/A Fog Light Freezing Fog
5:14 AM 28.4 °F - 28.4 °F 100% 29.93 in 0.5 mi Calm Calm - N/A Fog Light Freezing Fog
5:34 AM 28.4 °F - 28.4 °F 100% 29.92 in 0.2 mi Calm Calm - N/A Fog Light Freezing Fog
5:54 AM 28.4 °F - 28.4 °F 100% 29.92 in 0.2 mi Calm Calm - N/A Fog Light Freezing Fog
6:14 AM 28.4 °F - 26.6 °F 93% 29.92 in 0.2 mi Calm Calm - N/A Fog Light Freezing Fog
6:33 AM 26.6 °F - 26.6 °F 100% 29.93 in 0.2 mi Calm Calm - N/A Fog Light Freezing Fog
6:54 AM 26.6 °F - 26.6 °F 100% 29.92 in 0.2 mi Calm Calm - N/A Fog Light Freezing Fog
7:14 AM 24.8 °F - 24.8 °F 100% 29.92 in 0.2 mi Calm Calm - N/A Fog Light Freezing Fog
7:34 AM 24.8 °F - 23.0 °F 93% 29.93 in 0.2 mi Calm Calm - N/A Fog Light Freezing Fog
7:54 AM 24.8 °F - 23.0 °F 93% 29.93 in 0.2 mi Calm Calm - N/A Fog Light Freezing Fog
8:13 AM 23.0 °F - 21.2 °F 93% 29.93 in 0.2 mi Calm Calm - N/A Fog Light Freezing Fog
8:34 AM 23.0 °F - 21.2 °F 93% 29.93 in 0.2 mi Calm Calm - N/A Fog Light Freezing Fog
8:54 AM 21.2 °F - 21.2 °F 100% 29.93 in 0.2 mi Calm Calm - N/A Fog Light Freezing Fog
9:13 AM 23.0 °F - 21.2 °F 93% 29.93 in 0.2 mi Calm Calm - N/A Fog Light Freezing Fog
9:34 AM 24.8 °F - 23.0 °F 93% 29.93 in 0.2 mi Calm Calm - N/A Fog Light Freezing Fog
9:54 AM 24.8 °F - 24.8 °F 100% 29.93 in 1.2 mi Calm Calm - N/A   Mostly Cloudy
10:14 AM 26.6 °F 22.6 °F 26.6 °F 100% 29.93 in 3.0 mi NW 3.5 mph - N/A   Clear
10:34 AM 30.2 °F 22.6 °F 30.2 °F 100% 29.93 in 5.0 mi NW 8.1 mph - N/A   Clear
10:53 AM 30.2 °F 21.9 °F 30.2 °F 100% 29.93 in 7.0 mi NNW 9.2 mph - N/A   Clear
11:14 AM 30.2 °F 20.2 °F 30.2 °F 100% 29.94 in 7.0 mi NNW 12.7 mph - N/A   Clear
11:34 AM 30.2 °F 20.8 °F 30.2 °F 100% 29.94 in 10.0 mi NNW 11.5 mph - N/A   Clear
11:54 AM 30.2 °F 18.9 °F 30.2 °F 100% 29.94 in 7.0 mi NNW 16.1 mph - N/A   Scattered Clouds
12:14 PM 30.2 °F 20.8 °F 30.2 °F 100% 29.94 in 10.0 mi NNW 11.5 mph - N/A   Mostly Cloudy
12:34 PM 32.0 °F 23.0 °F 30.2 °F 93% 29.94 in 10.0 mi NNW 11.5 mph - N/A   Mostly Cloudy
12:54 PM 32.0 °F 25.6 °F 30.2 °F 93% 29.94 in 10.0 mi NNW 6.9 mph - N/A   Scattered Clouds
1:14 PM 33.8 °F 26.4 °F 30.2 °F 87% 29.94 in 10.0 mi NW 9.2 mph - N/A   Clear
1:34 PM 33.8 °F 25.3 °F 32.0 °F 93% 29.94 in 10.0 mi NW 11.5 mph - N/A   Clear
1:54 PM 33.8 °F 25.8 °F 32.0 °F 93% 29.94 in 10.0 mi NW 10.4 mph - N/A   Clear
2:14 PM 33.8 °F 24.8 °F 32.0 °F 93% 29.94 in 10.0 mi NW 12.7 mph - N/A   Clear
2:34 PM 33.8 °F 25.3 °F 30.2 °F 87% 29.94 in 10.0 mi NW 11.5 mph - N/A   Clear
2:54 PM 35.6 °F 29.2 °F 30.2 °F 81% 29.94 in 10.0 mi NW 8.1 mph - N/A   Clear
3:14 PM 35.6 °F 28.0 °F 30.2 °F 81% 29.94 in 10.0 mi NNW 10.4 mph - N/A   Clear
3:34 PM 35.6 °F 28.6 °F 28.4 °F 75% 29.93 in 10.0 mi NNW 9.2 mph - N/A   Clear
3:54 PM 35.6 °F 28.0 °F 30.2 °F 81% 29.93 in 10.0 mi NW 10.4 mph - N/A   Clear
4:14 PM 35.6 °F 28.6 °F 30.2 °F 81% 29.93 in 10.0 mi NW 9.2 mph - N/A   Clear
4:34 PM 35.6 °F 28.6 °F 30.2 °F 81% 29.93 in 10.0 mi NW 9.2 mph - N/A   Scattered Clouds
4:54 PM 35.6 °F 28.0 °F 30.2 °F 81% 29.93 in 10.0 mi NW 10.4 mph - N/A   Scattered Clouds
5:14 PM 35.6 °F 28.6 °F 30.2 °F 81% 29.92 in 10.0 mi NW 9.2 mph - N/A   Clear
5:34 PM 35.6 °F 29.2 °F 30.2 °F 81% 29.92 in 10.0 mi NW 8.1 mph - N/A   Clear
5:54 PM 33.8 °F 26.4 °F 30.2 °F 87% 29.92 in 10.0 mi NW 9.2 mph - N/A   Scattered Clouds
6:14 PM 35.6 °F 29.2 °F 30.2 °F 81% 29.91 in 10.0 mi NW 8.1 mph - N/A   Mostly Cloudy
6:34 PM 33.8 °F 27.0 °F 30.2 °F 87% 29.91 in 10.0 mi NW 8.1 mph - N/A   Mostly Cloudy
6:54 PM 33.8 °F 27.7 °F 30.2 °F 87% 29.91 in 10.0 mi WNW 6.9 mph - N/A   Scattered Clouds
7:14 PM 33.8 °F 27.7 °F 30.2 °F 87% 29.90 in 10.0 mi WNW 6.9 mph - N/A   Scattered Clouds
7:34 PM 33.8 °F 27.7 °F 28.4 °F 81% 29.90 in 10.0 mi WNW 6.9 mph - N/A   Mostly Cloudy
7:54 PM 33.8 °F 30.8 °F 28.4 °F 81% 29.89 in 10.0 mi West 3.5 mph - N/A   Overcast
8:14 PM 33.8 °F 28.6 °F 26.6 °F 75% 29.89 in 10.0 mi WNW 5.8 mph - N/A   Overcast
8:33 PM 33.8 °F 27.0 °F 28.4 °F 81% 29.88 in 10.0 mi WSW 8.1 mph - N/A   Overcast
8:54 PM 33.8 °F 28.6 °F 28.4 °F 81% 29.88 in 10.0 mi West 5.8 mph - N/A   Overcast
9:14 PM 33.8 °F 27.7 °F 30.2 °F 87% 29.88 in 10.0 mi West 6.9 mph - N/A   Overcast
9:34 PM 33.8 °F 29.6 °F 32.0 °F 93% 29.87 in 10.0 mi West 4.6 mph - N/A   Overcast
9:54 PM 33.8 °F 28.6 °F 32.0 °F 93% 29.87 in 10.0 mi West 5.8 mph - N/A   Overcast
10:14 PM 33.8 °F 26.4 °F 32.0 °F 93% 29.87 in 10.0 mi West 9.2 mph - N/A   Overcast
10:34 PM 33.8 °F 26.4 °F 32.0 °F 93% 29.86 in 7.0 mi West 9.2 mph - N/A   Overcast
10:54 PM 33.8 °F 27.0 °F 32.0 °F 93% 29.86 in 10.0 mi WSW 8.1 mph - N/A   Overcast
11:14 PM 33.8 °F 27.7 °F 32.0 °F 93% 29.86 in 10.0 mi West 6.9 mph - N/A   Overcast
11:34 PM 33.8 °F 27.0 °F 32.0 °F 93% 29.85 in 10.0 mi West 8.1 mph - N/A   Overcast
11:54 PM 33.8 °F 27.7 °F 32.0 °F 93% 29.84 in 10.0 mi West 6.9 mph - N/A   Overcast